FW9150 Weather Reports


time (UTC)temp
C
wind
direction
speed
KPH
gust
KPH
rain 1hr
cm
rain 24hr
cm
rain mn
cm
humidity
%
barometer
mb
20260901013316 18 159 0.0 0.0 0.00 0.00 0.00 42 1020.0
20260901012316 18 202 0.0 0.0 0.00 0.00 0.00 41 1019.9
20260901011315 18 188 0.0 1.6 0.00 0.00 0.00 41 1019.9
20260901010315 19 181 1.6 4.8 0.00 0.00 0.00 41 1019.8
20260901005314 19 225 0.0 3.2 0.00 0.00 0.00 40 1019.9
20260901003315 20 202 0.0 3.2 0.00 0.00 0.00 39 1019.9
20260901002315 20 217 3.2 8.0 0.00 0.00 0.00 40 1019.9
20260901001415 20 225 3.2 4.8 0.00 0.00 0.00 40 1019.7
20260901000415 20 247 1.6 3.2 0.00 0.00 0.00 39 1019.9
20260831235417 20 292 0.0 0.0 0.00 0.00 0.00 40 1019.9
20260831234514 21 215 1.6 4.8 0.00 0.00 0.00 40 1020.0
20260831233515 21 181 0.0 1.6 0.00 0.00 0.00 40 1020.0
20260831232517 21 94 0.0 6.4 0.00 0.00 0.00 39 1020.1
20260831231514 21 180 1.6 3.2 0.00 0.00 0.00 40 1020.0
20260831230515 21 137 4.8 9.7 0.00 0.00 0.00 40 1020.2
20260831225530 21 181 4.8 9.7 0.00 0.00 0.00 39 1020.2
20260831224515 21 195 1.6 8.0 0.00 0.00 0.00 40 1020.3
20260831223614 21 243 3.2 6.4 0.00 0.00 0.00 40 1020.2
20260831222615 21 174 1.6 4.8 0.00 0.00 0.00 38 1020.3
20260831221616 21 310 1.6 6.4 0.00 0.00 0.00 40 1020.2
20260831220616 22 215 4.8 6.4 0.00 0.00 0.00 39 1020.3
20260831215616 22 223 4.8 9.7 0.00 0.00 0.00 39 1020.3
20260831214616 22 191 4.8 11.3 0.00 0.00 0.00 38 1020.4
20260831213715 22 219 4.8 6.4 0.00 0.00 0.00 37 1020.4
20260831212814 22 173 0.0 1.6 0.00 0.00 0.00 38 1020.5
20260831211816 22 169 6.4 11.3 0.00 0.00 0.00 37 1020.3
20260831210815 22 228 3.2 8.0 0.00 0.00 0.00 37 1020.5
20260831205816 23 184 8.0 11.3 0.00 0.00 0.00 36 1020.6
20260831204915 23 192 6.4 9.7 0.00 0.00 0.00 35 1020.5
20260831203914 23 193 3.2 4.8 0.00 0.00 0.00 34 1020.7
20260831202916 22 29 0.0 1.6 0.00 0.00 0.00 33 1020.7
20260831201015 23 229 3.2 9.7 0.00 0.00 0.00 32 1020.8
20260831200015 22 174 3.2 4.8 0.00 0.00 0.00 30 1020.7
20260831195015 22 146 8.0 11.3 0.00 0.00 0.00 30 1020.9
20260831194016 22 199 6.4 9.7 0.00 0.00 0.00 28 1020.9
20260831193113 22 214 1.6 4.8 0.00 0.00 0.00 28 1020.9
20260831192116 23 192 4.8 6.4 0.00 0.00 0.00 29 1021.1
20260831190314 22 217 8.0 9.7 0.00 0.00 0.00 28 1021.3
20260831185315 22 202 4.8 8.0 0.00 0.00 0.00 28 1021.1
20260831184314 22 243 6.4 9.7 0.00 0.00 0.00 28 1021.2
20260831183413 22 220 3.2 6.4 0.00 0.00 0.00 27 1021.2
20260831182415 22 238 1.6 4.8 0.00 0.00 0.00 27 1021.1
20260831181413 22 227 6.4 11.3 0.00 0.00 0.00 28 1021.3
20260831180416 21 225 0.0 3.2 0.00 0.00 0.00 28 1021.2
20260831175415 21 159 1.6 4.8 0.00 0.00 0.00 30 1021.1
20260831173614 20 189 3.2 6.4 0.00 0.00 0.00 32 1021.2
20260831172616 20 171 3.2 6.4 0.00 0.00 0.00 34 1021.1
20260831171615 20 141 1.6 4.8 0.00 0.00 0.00 35 1021.0
20260831170615 20 210 1.6 3.2 0.00 0.00 0.00 33 1021.0
20260831165614 21 158 3.2 6.4 0.00 0.00 0.00 33 1020.9
20260831164615 21 199 3.2 4.8 0.00 0.00 0.00 34 1020.8
20260831163715 21 112 0.0 3.2 0.00 0.00 0.00 39 1020.8
20260831162813 21 135 1.6 1.6 0.00 0.00 0.00 40 1020.9
20260831161815 20 225 0.0 0.0 0.00 0.00 0.00 41 1020.9
20260831160815 20 157 0.0 1.6 0.00 0.00 0.00 45 1021.0
20260831155813 18 209 0.0 3.2 0.00 0.00 0.00 47 1021.1
20260831154817 17 225 0.0 3.2 0.00 0.00 0.00 51 1021.3
20260831153814 15 157 0.0 0.0 0.00 0.00 0.00 54 1021.2
20260831151815 13 157 0.0 0.0 0.00 0.00 0.00 59 1021.2
20260831150815 13 157 0.0 0.0 0.00 0.00 0.00 60 1021.2
20260831145814 13 157 0.0 0.0 0.00 0.00 0.00 60 1021.2
20260831144814 12 157 0.0 0.0 0.00 0.00 0.00 60 1021.1
20260831143815 12 157 0.0 0.0 0.00 0.00 0.00 61 1020.9
20260831142914 12 157 0.0 0.0 0.00 0.00 0.00 59 1020.9
20260831141914 12 157 0.0 0.0 0.00 0.00 0.00 57 1020.9
20260831140917 12 157 0.0 0.0 0.00 0.00 0.00 57 1020.9
20260831140015 12 157 0.0 0.0 0.00 0.00 0.00 55 1020.8
20260831134015 12 157 0.0 0.0 0.00 0.00 0.00 54 1020.7
20260831133033 12 157 0.0 0.0 0.00 0.00 0.00 55 1020.6
20260831132113 12 157 0.0 0.0 0.00 0.00 0.00 54 1020.6
20260831130214 12 157 0.0 0.0 0.00 0.00 0.00 53 1020.5
20260831125214 12 157 0.0 0.0 0.00 0.00 0.00 54 1020.4
20260831124215 12 157 0.0 0.0 0.00 0.00 0.00 53 1020.3
20260831122316 12 157 0.0 0.0 0.00 0.00 0.00 52 1020.5
20260831121317 12 157 0.0 0.0 0.00 0.00 0.00 52 1020.6
20260831120414 12 157 0.0 0.0 0.00 0.00 0.00 52 1020.6
20260831113513 12 157 0.0 0.0 0.00 0.00 0.00 52 1020.7
20260831112516 12 157 0.0 0.0 0.00 0.00 0.00 53 1020.7
20260831111614 12 157 0.0 0.0 0.00 0.00 0.00 52 1020.7
20260831110616 13 157 0.0 0.0 0.00 0.00 0.00 52 1020.7
20260831105614 13 157 0.0 0.0 0.00 0.00 0.00 51 1020.6
20260831104616 13 157 0.0 0.0 0.00 0.00 0.00 51 1020.7
20260831103615 12 157 0.0 0.0 0.00 0.00 0.00 52 1020.7
20260831102615 12 157 0.0 0.0 0.00 0.00 0.00 54 1020.5
20260831100714 12 157 0.0 0.0 0.00 0.00 0.00 55 1020.9
20260831095715 12 157 0.0 0.0 0.00 0.00 0.00 55 1020.7
20260831094715 12 157 0.0 0.0 0.00 0.00 0.00 56 1020.7
20260831093714 12 157 0.0 0.0 0.00 0.00 0.00 57 1020.6
20260831092714 12 157 0.0 0.0 0.00 0.00 0.00 57 1020.8
20260831091814 12 157 0.0 0.0 0.00 0.00 0.00 56 1020.8
20260831090813 12 157 0.0 0.0 0.00 0.00 0.00 55 1020.8
20260831085814 12 157 0.0 0.0 0.00 0.00 0.00 56 1020.9
20260831084814 12 157 0.0 0.0 0.00 0.00 0.00 57 1020.9
20260831083912 12 157 0.0 0.0 0.00 0.00 0.00 58 1021.0
20260831082917 12 157 0.0 0.0 0.00 0.00 0.00 57 1021.0
20260831081917 13 157 0.0 0.0 0.00 0.00 0.00 58 1021.1
20260831081014 12 157 0.0 0.0 0.00 0.00 0.00 57 1021.3
20260831080016 12 157 0.0 0.0 0.00 0.00 0.00 58 1021.3
20260831075114 12 157 0.0 0.0 0.00 0.00 0.00 60 1021.2
20260831074115 12 157 0.0 0.0 0.00 0.00 0.00 61 1021.2
20260831073115 12 157 0.0 0.0 0.00 0.00 0.00 61 1021.2
20260831072115 12 157 0.0 0.0 0.00 0.00 0.00 61 1021.2
20260831070216 13 157 0.0 0.0 0.00 0.00 0.00 62 1021.2
20260831065306 12 157 0.0 0.0 0.00 0.00 0.00 63 1021.2
20260831064305 12 157 0.0 0.0 0.00 0.00 0.00 62 1021.4
20260831063304 13 157 0.0 0.0 0.00 0.00 0.00 62 1021.4
20260831062306 13 157 0.0 0.0 0.00 0.00 0.00 62 1021.3
20260831061318 13 157 0.0 0.0 0.00 0.00 0.00 62 1021.4
20260831060404 12 157 0.0 0.0 0.00 0.00 0.00 63 1021.4
20260831055405 13 157 0.0 0.0 0.00 0.00 0.00 62 1021.5
20260831054405 13 157 0.0 0.0 0.00 0.00 0.00 61 1021.5
20260831052603 13 157 0.0 0.0 0.00 0.00 0.00 62 1021.6
20260831050702 13 157 0.0 0.0 0.00 0.00 0.00 61 1021.6
20260831044802 13 157 0.0 0.0 0.00 0.00 0.00 59 1021.8
20260831042918 13 157 0.0 0.0 0.00 0.00 0.00 59 1021.6
20260831041904 14 157 0.0 0.0 0.00 0.00 0.00 58 1021.7
20260831040905 14 157 0.0 0.0 0.00 0.00 0.00 57 1021.5
20260831035906 15 157 0.0 0.0 0.00 0.00 0.00 57 1021.4
20260831035004 15 157 0.0 0.0 0.00 0.00 0.00 57 1021.4
20260831033103 15 157 0.0 0.0 0.00 0.00 0.00 54 1021.4
20260831032104 16 157 0.0 0.0 0.00 0.00 0.00 54 1021.4
20260831031105 16 157 0.0 0.0 0.00 0.00 0.00 54 1021.4
20260831030118 16 157 0.0 0.0 0.00 0.00 0.00 52 1021.3
20260831030003 16 157 0.0 0.0 0.00 0.00 0.00 52 1021.2
20260831025004 17 157 0.0 0.0 0.00 0.00 0.00 51 1021.2
20260831024005 17 157 0.0 0.0 0.00 0.00 0.00 49 1021.3
20260831023005 17 157 0.0 0.0 0.00 0.00 0.00 49 1021.2
20260831022021 18 157 0.0 0.0 0.00 0.00 0.00 48 1021.2
20260831020104 18 157 0.0 0.0 0.00 0.00 0.00 46 1021.1
20260831015202 19 157 0.0 0.0 0.00 0.00 0.00 44 1021.3
20260831014204 20 157 0.0 0.0 0.00 0.00 0.00 44 1021.2